Вернуться в каталог

FENGYUN 1C DEB

АктивенPO
NORAD 31773·DEBRIS·🇨🇳 China

Запущен May 10, 1999 с Taiyuan Satellite Launch Center

Loading…

Ближайшие Пролёты (ближайшие 24 часа)

TLE

СвежийSource: Space-Track

Эпоха: Sep 13, 2026, 07:14 UTC

1 31773U 99025CFY 26256.30174844  .00007367  00000-0  97549-3 0  9998
2 31773  98.9476 281.9618 0035435  42.1861 318.2065 14.79817501692277

Отслеживайте FENGYUN 1C DEB в реальном времени с AllMySat

Download on the App Store